Location: Grust
(42.8833°N, 0.0333°W)
Time: 13:54:52
(UTC+00:00)

IRS-P2 Rocket - Pass Details

Date: 25 October 2020
Orbit: 794 x 876 km, 99.1° (Epoch: 24 November)

Event Time Altitude Azimuth Distance (km) Brightness Sun altitude
Rises 18:17:57 0° 159° (SSE) 3,281 7.6 -14.6°
Reaches altitude 10° 18:20:15 10° 158° (SSE) 2,357 6.8 -15.0°
Maximum altitude 18:25:26 76° 73° (ENE) 826 4.5 -16.0°
Drops below altitude 10° 18:30:43 10° 349° (NNW) 2,400 7.2 -16.9°
Sets 18:33:04 0° 348° (NNW) 3,345 8.0 -17.4°
